Stations météo

Publicité
Cap Bear, France (7749): Température de l'air & dewpoint: 21.10.2020 18:00:00 - 27.10.2020 18:00:00 (CET)Cap Bear, France (7749): Vitesse du vent & gusts: 21.10.2020 18:00:00 - 27.10.2020 18:00:00 (CET)Cap Bear, France (7749): Direction du vent: 21.10.2020 18:00:00 - 27.10.2020 18:00:00 (CET)Cap Bear, France (7749): reduced air pressure: 21.10.2020 18:00:00 - 27.10.2020 18:00:00 (CET)Cap Bear, France (7749): visibility: 21.10.2020 18:00:00 - 27.10.2020 18:00:00 (CET)Cap Bear, France (7749): Quantités de précipitations: 21.10.2020 18:00:00 - 27.10.2020 18:00:00 (CET)
Date & Time tt [°C] td [°C] ff [km/h] ff [knt] fx [km/h] fx [knt] dd ppp [hPa] vv [km] rr [mm]
27.10.2020 18:00:00 14,1 10,1 17 9 31 17 S 1015,4 - 0,0
27.10.2020 17:00:00 14,4 10,8 29 16 32 17 SSE 1015,2 - 0,0
27.10.2020 16:00:00 15,0 9,4 22 12 30 16 SE 1015,1 - 0,0
27.10.2020 15:00:00 15,3 9,9 22 12 28 15 SE 1015,1 - 0,0
27.10.2020 14:00:00 15,9 8,9 13 7 24 13 SE 1015,5 - 0,0
27.10.2020 13:00:00 16,5 7,4 9 5 19 10 WSW 1016,0 - 0,0
27.10.2020 12:00:00 15,8 7,8 15 8 29 15 NW 1016,6 - 0,0
27.10.2020 11:00:00 14,9 7,0 24 13 36 19 NW 1016,8 - 0,0
27.10.2020 10:00:00 13,9 7,4 21 12 35 19 NW 1016,6 25 0,0
27.10.2020 09:00:00 13,6 6,7 26 14 46 25 NW 1016,2 - 0,0
27.10.2020 08:00:00 13,2 5,6 27 14 51 28 NW 1015,5 - 0,0
27.10.2020 07:00:00 12,4 4,8 23 12 41 22 NW 1015,1 25 0,0
27.10.2020 06:00:00 11,7 3,9 20 11 36 19 WNW 1015,0 - 0,0
27.10.2020 05:00:00 12,8 5,0 30 16 44 24 NW 1014,7 - 0,0
27.10.2020 04:00:00 11,9 3,9 20 11 38 21 NW 1014,7 - 0,0
27.10.2020 03:00:00 12,2 3,4 24 13 34 19 NW 1014,6 - 0,0
27.10.2020 02:00:00 12,6 3,5 22 12 50 27 NW 1014,9 - 0,0
27.10.2020 01:00:00 12,5 4,0 23 12 42 23 NW 1015,0 20 0,0
27.10.2020 00:00:00 12,6 4,0 22 12 36 19 NW 1015,3 - 0,0
26.10.2020 23:00:00 12,7 4,4 24 13 68 37 NW 1015,2 - 0,0
26.10.2020 22:00:00 13,1 4,8 42 23 65 35 NW 1014,2 - 0,0
26.10.2020 21:00:00 13,0 4,9 37 20 61 33 NW 1014,2 - 0,0
26.10.2020 20:00:00 13,3 6,6 44 24 77 42 NNW 1014,2 - 0,0
26.10.2020 19:00:00 13,5 7,3 64 35 94 51 NNW 1012,6 20 0,0
26.10.2020 18:00:00 13,9 6,0 74 40 96 52 NNW 1010,6 - 0,0
26.10.2020 17:00:00 14,1 6,9 64 35 83 45 NNW 1010,8 - 0,0
26.10.2020 16:00:00 14,4 6,5 54 29 81 44 NNW 1010,3 - 0,0
26.10.2020 15:00:00 13,9 6,3 62 34 96 52 NNW 1009,6 - 0,0
26.10.2020 14:00:00 13,7 6,5 74 40 98 53 NNW 1008,6 - 0,0
26.10.2020 13:00:00 13,2 7,2 79 43 96 52 NNW 1008,4 25 0,0
26.10.2020 12:00:00 13,6 7,6 81 44 93 50 NNW 1008,3 - 0,0
26.10.2020 11:00:00 11,6 7,9 37 20 57 31 NW 1010,9 - 0,6
26.10.2020 10:00:00 11,0 7,5 41 22 68 37 NW 1010,9 20 0,2
26.10.2020 09:00:00 10,6 8,2 44 24 66 36 NW 1010,3 - 1,0
26.10.2020 08:00:00 11,5 7,2 41 22 61 33 NW 1009,2 - 0,0
26.10.2020 07:00:00 12,3 6,3 39 21 58 32 NW 1008,5 20 0,0
26.10.2020 06:00:00 12,4 6,4 40 21 61 33 NW 1007,8 - 0,0
26.10.2020 05:00:00 12,1 6,2 34 19 53 29 NW 1008,1 - 0,0
26.10.2020 04:00:00 11,3 7,2 37 20 61 33 NW 1008,0 - 0,4
26.10.2020 03:00:00 11,4 7,5 45 24 69 37 WNW 1008,7 - 0,4
26.10.2020 02:00:00 13,7 7,2 40 22 76 41 NW 1007,9 - 0,0
26.10.2020 01:00:00 14,4 8,6 44 24 68 37 NW 1008,1 20 0,0
26.10.2020 00:00:00 15,0 10,0 41 22 58 31 WNW 1007,4 - 0,0
25.10.2020 23:00:00 14,6 11,6 28 15 55 30 WNW 1007,2 - 0,0
25.10.2020 22:00:00 14,0 12,2 24 13 48 26 NW 1006,1 - 0,0
25.10.2020 21:00:00 14,1 12,0 10 5 40 22 S 1005,4 - 0,0
25.10.2020 20:00:00 14,3 12,5 26 14 37 20 SE 1006,0 - 0,0
25.10.2020 19:00:00 14,4 11,9 6 3 13 7 E 1007,6 - 0,0
25.10.2020 18:00:00 14,6 12,8 9 5 13 7 S 1008,3 - 0,0
25.10.2020 17:00:00 15,5 11,9 6 4 11 6 WNW 1008,7 - 0,0
25.10.2020 16:00:00 15,2 12,0 8 4 17 9 NW 1009,2 20 0,0
25.10.2020 15:00:00 15,6 13,1 12 7 25 13 N 1009,4 - 0,0
25.10.2020 14:00:00 15,2 13,2 24 13 27 15 N 1009,9 - 0,0
25.10.2020 13:00:00 15,6 13,6 21 12 29 16 N 1010,8 15 0,0
25.10.2020 12:00:00 15,2 13,2 21 11 25 14 N 1011,3 - 0,0
25.10.2020 11:00:00 14,6 12,6 20 11 26 14 N 1011,5 - 0,0
25.10.2020 10:00:00 14,3 11,8 22 12 27 15 NW 1011,4 10 0,0
25.10.2020 09:00:00 13,6 11,3 24 13 33 18 NW 1011,6 - 0,0
25.10.2020 08:00:00 13,5 11,9 23 13 33 18 NW 1011,7 - 0,0
25.10.2020 07:00:00 13,7 11,7 29 16 37 20 WNW 1011,4 15 0,0
25.10.2020 06:00:00 13,8 12,0 22 12 41 22 NW 1011,9 - 0,0
25.10.2020 05:00:00 13,8 12,0 27 15 45 25 NW 1011,9 - 0,0
25.10.2020 04:00:00 13,5 12,4 28 15 39 21 NW 1012,5 20 0,0
25.10.2020 03:00:00 13,2 12,9 26 14 34 19 NW 1013,3 - 0,0
25.10.2020 02:00:00 13,2 10,9 30 16 34 18 NW 1013,7 - 0,0
25.10.2020 01:00:00 - - - - - - - - - -
25.10.2020 00:00:00 14,4 10,8 8 5 17 9 NNW 1015,1 - 0,0
24.10.2020 23:00:00 14,4 11,4 10 5 16 9 NW 1015,8 - 0,0
24.10.2020 22:00:00 15,3 11,5 8 5 13 7 NW 1016,4 - 0,0
24.10.2020 21:00:00 15,7 11,1 7 4 20 11 NNW 1017,1 - 0,0
24.10.2020 20:00:00 15,9 11,1 16 9 27 15 S 1017,5 - 0,0
24.10.2020 19:00:00 16,4 11,3 25 13 29 16 S 1017,8 25 0,0
24.10.2020 18:00:00 16,6 12,3 17 9 29 16 S 1017,9 - 0,0
24.10.2020 17:00:00 16,2 13,3 28 15 31 17 SSE 1018,4 - 0,0
24.10.2020 16:00:00 16,4 13,3 26 14 29 16 SSE 1018,8 25 0,0
24.10.2020 15:00:00 16,4 12,0 23 12 25 13 SSE 1019,5 - 0,0
24.10.2020 14:00:00 17,0 11,0 14 7 17 9 SSE 1020,3 - 0,0
24.10.2020 13:00:00 17,4 9,8 5 3 9 5 E 1021,0 25 0,0
24.10.2020 12:00:00 17,1 10,5 8 4 15 8 NNE 1021,8 - 0,0
24.10.2020 11:00:00 16,5 9,7 16 9 23 13 N 1022,2 - 0,0
24.10.2020 10:00:00 16,4 9,8 22 12 28 15 NW 1022,2 25 0,0
24.10.2020 09:00:00 16,4 8,6 9 5 34 19 NW 1022,3 - 0,0
24.10.2020 08:00:00 15,6 7,9 20 11 39 21 WNW 1022,1 - 0,0
24.10.2020 07:00:00 15,2 8,0 26 14 42 23 NW 1021,7 25 0,0
24.10.2020 06:00:00 15,4 8,2 29 16 44 24 WNW 1021,9 - 0,0
24.10.2020 05:00:00 15,6 8,3 28 15 50 27 NW 1021,9 - 0,0
24.10.2020 04:00:00 15,8 8,8 28 15 50 27 NW 1021,8 25 0,0
24.10.2020 03:00:00 15,9 9,3 33 18 53 28 WNW 1022,1 - 0,0
24.10.2020 02:00:00 16,0 10,5 37 20 64 35 NW 1021,9 - 0,0
24.10.2020 01:00:00 16,5 - 31 17 50 27 NW - 20 0,0
24.10.2020 00:00:00 16,4 - 28 15 55 30 NW - - 0,0
23.10.2020 23:00:00 16,8 - 35 19 52 28 NW - - 0,0
23.10.2020 22:00:00 16,8 - 40 21 61 33 NW - 20 0,0
23.10.2020 21:00:00 17,0 - 42 23 60 32 WNW - - 0,0
23.10.2020 20:00:00 17,8 10,4 33 18 54 29 NW 1019,6 - 0,0
23.10.2020 19:00:00 17,7 10,6 31 17 52 28 NW 1019,3 20 0,0
23.10.2020 18:00:00 17,4 11,0 37 20 59 32 NW 1018,3 - 0,0
23.10.2020 17:00:00 18,0 12,0 35 19 57 31 WNW 1017,5 - 0,0
23.10.2020 16:00:00 17,9 - 26 14 44 24 NW - - 0,2
23.10.2020 15:00:00 18,3 - 8 4 12 6 NNE - - 0,0
23.10.2020 14:00:00 16,5 - 9 5 14 7 ENE - - 0,0
23.10.2020 13:00:00 19,0 - 9 5 16 8 E - 20 0,0
23.10.2020 12:00:00 19,0 - 10 5 13 7 E - - 0,0
23.10.2020 11:00:00 19,1 - 8 4 13 7 NE - - 0,0
23.10.2020 10:00:00 19,3 - 9 5 13 7 NE - 20 0,0
23.10.2020 09:00:00 19,6 15,7 4 2 14 7 ESE 1015,6 - 0,0
23.10.2020 08:00:00 16,4 - 11 6 18 10 NNW - - 0,0
23.10.2020 07:00:00 17,8 17,0 9 5 25 13 N 1014,5 - 0,0
23.10.2020 06:00:00 18,6 17,6 12 7 59 32 NNW 1013,8 - 0,0
23.10.2020 05:00:00 18,8 - 35 19 69 37 SSW - - 0,0
23.10.2020 04:00:00 18,6 - 54 29 76 41 S - 20 0,0
23.10.2020 03:00:00 18,2 - 50 27 61 33 S - - 0,0
23.10.2020 02:00:00 17,3 - 35 19 44 24 SSE - - 0,0
23.10.2020 01:00:00 18,5 - 29 16 42 23 SSW - - 0,2
23.10.2020 00:00:00 17,6 - 31 17 40 22 SSW - - 0,0
22.10.2020 23:00:00 17,0 - 16 8 24 13 S - - 0,0
22.10.2020 22:00:00 16,6 - 17 9 36 20 S - 5 0,0
22.10.2020 21:00:00 16,4 - 34 18 39 21 SSE - - 0,0
22.10.2020 20:00:00 17,0 - 30 16 38 21 SSE - - 0,0
22.10.2020 19:00:00 16,8 - 34 18 38 21 SSE - - 0,0
22.10.2020 18:00:00 16,7 - 30 16 41 22 SSE - - 0,0
22.10.2020 17:00:00 16,7 16,7 24 13 32 17 SSE 1015,0 - 0,0
22.10.2020 16:00:00 16,5 16,5 30 16 39 21 SSE 1015,1 - 0,0
22.10.2020 15:00:00 16,8 16,8 32 18 39 21 SSE 1015,2 - 0,0
22.10.2020 14:00:00 16,7 16,7 33 18 41 22 SSE 1015,4 - 0,0
22.10.2020 13:00:00 16,9 16,7 30 16 53 28 S 1016,1 0,5 0,0
22.10.2020 12:00:00 17,0 16,7 47 26 56 31 SSE 1016,4 - 0,0
22.10.2020 11:00:00 17,9 17,3 45 25 58 32 SE 1016,0 - 0,0
22.10.2020 10:00:00 19,3 17,1 17 9 32 18 ESE 1016,7 13 0,0
22.10.2020 09:00:00 19,7 17,1 16 9 41 22 S 1016,1 - 0,0
22.10.2020 08:00:00 19,4 17,0 32 18 45 24 SSW 1014,9 - 0,0
22.10.2020 07:00:00 19,6 16,6 29 16 41 22 S 1014,6 - 0,0
22.10.2020 06:00:00 19,4 16,4 33 18 50 27 SSW 1014,3 - 0,0
22.10.2020 05:00:00 19,1 16,7 35 19 45 24 S 1014,2 - 0,0
22.10.2020 04:00:00 18,6 16,2 32 17 50 27 S 1014,3 10 0,0
22.10.2020 03:00:00 18,2 16,7 31 17 57 31 SSW 1014,1 - 0,0
22.10.2020 02:00:00 17,7 17,4 28 15 48 26 S 1014,1 - 0,0
22.10.2020 01:00:00 16,9 16,9 18 10 33 18 S 1014,4 1,5 0,0
22.10.2020 00:00:00 16,7 16,7 29 16 40 21 SSE 1014,3 - 0,0
21.10.2020 23:00:00 17,1 17,1 31 17 36 19 SSE 1014,2 - 0,0
21.10.2020 22:00:00 16,8 16,8 32 17 39 21 SSE 1013,6 0,2 0,0
21.10.2020 21:00:00 16,8 16,8 31 17 44 24 SSE 1013,2 - 0,0
21.10.2020 20:00:00 17,1 17,1 40 22 50 27 SSE 1013,0 - 0,0
21.10.2020 19:00:00 17,0 17,0 45 24 51 27 SSE 1012,8 0,2 0,0
21.10.2020 18:00:00 17,0 17,0 37 20 53 29 SSE 1012,6 - 0,0

tt = Température de l'air
td = dewpoint
ff = Vitesse du vent
fx = gusts
dd = Direction du vent
ppp = reduced air pressure
vv = visibility
rr = Quantités de précipitations

stations d'obs. à proximité